Volver al catálogo

YAOGAN 16C

ActivoMilitarLEO
NORAD 39013·PAYLOAD·🇨🇳 China

Lanzado Nov 25, 2012 desde Jiuquan Satellite Launch Center

Loading…

Próximos Pases (próximas 24 horas)

TLE

ActualizadoSource: Space-Track

Época: Sep 14, 2026, 14:13 UTC

1 39013U 12066C   26257.59272193 -.00000302  00000-0 -19601-3 0  9998
2 39013  63.3526  58.5902 0442982  27.2077 335.1424 13.45512375678162

Sigue YAOGAN 16C en tiempo real con AllMySat

Download on the App Store